Houffatrail
Catégorie
MAL
Houffalize, 07-08/12/2013, BEL
50km - Classement
50km 
RangNrNomAgeIOCEquipeTempsTkmMoy.ScrLocalité
1.939DUNKERBECK ThomasNLD4:38:165:34 10.781
2.79SIMOEN HenriBEL4:45:235:43 10.512
3.922DE BEUKELAER TomBEL4:46:385:44 10.473
4.917CLEMENTZ JonathanFRA4:47:355:46 10.434
5.139TOURLOUSE JochenBEL4:56:075:56 10.135
6.85VAN DEN BERGH BenjaminBEL5:03:376:05 9.886
7.945HARDENNE FrédérickBEL5:04:186:06 9.867
8.948JACOBS JorisBEL5:08:046:10 9.748
9.57LUITJES WardNED5:09:486:12 9.689
10.923DE BIE FonsNLD5:13:066:16 9.5810
11.129KROSSE JeroenNLD5:16:596:21 9.4611
12.1027VANBRABANT WouterBEL5:23:076:28 9.2812
13.1016VAN BOS JanBEL5:27:006:33 9.1713
14.903BERZINS MarisLAT5:29:056:35 9.1214
15.998SOUCHARD MartinFRA5:30:466:37 9.0715
16.90VAN DER BURGT AteNED5:34:596:42 8.9616
17.968MEEUS NikBEL5:37:356:46 8.8917
18.1032VERBESSELT KevinBEL5:38:326:47 8.8618
19.961LECHAT LouisBEL5:39:256:48 8.8419
20.952JANSSEN AlfredBEL5:39:256:48 8.8420
21.46HENDRIX BertBEL5:43:236:53 8.7421
22.1038VRIJSEN PeterBEL5:43:516:53 8.7323
23.963LINDERS NickyNLD5:44:056:53 8.7224
24.1035VERELLEN EricFRA5:44:226:54 8.7125
25.914CARA DanielBEL5:44:496:54 8.7026
26.908BOSSUYT WouterBEL5:45:246:55 8.6927
27.2BAKKER ChristianNED5:45:436:55 8.6828
28.999SPRUDS AndrisLAT5:47:366:58 8.6330
29.985PRINSEN DerkNLD5:49:527:00 8.5731
30.966MARTIN NicolasFRA5:50:197:01 8.5632
31.26DEGROOTE FrancescoBEL5:55:327:07 8.4433
32.940EVERTS JoskeBEL5:55:397:07 8.4434
33.972MUNOZ LuisESP5:55:577:08 8.4335
34.87VAN DEN BOOM robertNED5:57:147:09 8.4036
35.1028VANDERSWALMEN TonyBEL5:57:167:09 8.4037
36.1002SWAAB BasNLD5:57:367:10 8.3938
37.904BIHAY FabriceBEL5:57:467:10 8.3939
38.77SCHOONACKERS hansBEL5:58:507:11 8.3640
39.970MERCIER MichelBEL5:59:387:12 8.3441
40.913CAMBIER PascalBEL6:00:307:13 8.3242
41.1003TAYLOR SébastienBEL6:00:587:14 8.3144
42.912CALMANT SergeBEL6:02:327:16 8.2845
43.962LEFEBVRE OlivierBEL6:02:337:16 8.2746
44.901ALEVA HuubNLD6:07:457:22 8.1647
45.926DE WILT AddyNLD6:07:457:22 8.1648
46.64MOREE JohanNED6:07:557:22 8.1549
47.967MEELBERGHS DirkBEL6:08:127:22 8.1550
DNF: abandon; DSQ: disqualifié; Vitesse en km/h
08/02/2023 - 01:00 - 141 Entrées
ChronoRace - Electronic Timing SPRL
http://www.chronorace.be

Page 1 / 3  
Houffatrail
Catégorie
MAL
Houffalize, 07-08/12/2013, BEL
50km - Classement
50km 
RangNrNomAgeIOCEquipeTempsTkmMoy.ScrLocalité
48.1018VAN DE VEN CharlesNLD6:11:237:26 8.0851
49.3BECKER WimBEL6:13:117:28 8.0452
50.1011UREEL JohanBEL6:14:297:30 8.0153
51.69PHLIX MarkBEL6:15:527:32 7.9854
52.954JUGNON TimothéeBEL6:16:177:32 7.9756
53.39GALLE TimothyBEL6:16:357:32 7.9757
54.1022VAN KEMPEN DirkNLD6:17:257:33 7.9558
55.973MUSONE AntonioNLD6:17:267:33 7.9559
56.1006THEUNISSEN BartNLD6:17:277:33 7.9560
57.915CASTELAIN Jean-LucBEL6:20:007:36 7.9061
58.906BLUM EricFRA6:21:037:38 7.8763
59.1040WIENCEK AndyBEL6:21:037:38 7.8764
60.1036VINTCENT Jean PaulNLD6:24:057:41 7.8165
61.1013USELIS MarisLAT6:24:347:42 7.8066
62.947HOUTMAN JanNLD6:26:257:44 7.7667
63.965MARSILLE WalterNLD6:26:267:44 7.7668
64.1023VAN MEERVELD PeterNLD6:27:367:46 7.7470
65.1034VERBOVEN DaanNLD6:28:277:47 7.7271
66.20DE JONGHE WillemBEL6:29:097:47 7.7172
67.33DICKHOUT HansNED6:29:287:48 7.7073
68.978PACKOLET WalterBEL6:30:037:49 7.6974
69.977NOPPE Jean-PierreBEL6:30:387:49 7.6875
70.924DE MUNTER CharlesBEL6:31:147:50 7.6776
71.932DESTOOP PeterBEL6:32:467:52 7.6477
72.994SCHELLENS IvanBEL6:34:297:54 7.6180
73.969MERCIER DominiqueBEL6:37:347:58 7.5581
74.983PIERARD MichelBEL6:37:397:58 7.5482
75.49JAGER MarcelNED6:37:567:58 7.5483
76.122KROONEN Fabrice40BEL6:44:548:06 7.4185GRAND-HALLEUX
77.911BRUNELLE OlivierFRA6:45:208:07 7.4086
78.52JOOS LievenBEL6:45:398:07 7.4087
79.1014VAN ARENSBERGEN BartNLD6:45:418:07 7.3988
80.927DECROIX OlivierBEL6:46:188:08 7.3889
81.102VAN OVEN BarryNED6:46:388:08 7.3890
82.1033VERBINNEN ManuBEL6:47:078:09 7.3791
83.1021VAN DER VEKEN FrankBEL6:47:178:09 7.3792
84.1031VANTERS EdgarsLAT6:47:248:09 7.3693
85.991ROOSE TonyBEL6:48:338:11 7.3494
86.910BRUGGEMAN GeertBEL6:48:438:11 7.3495
87.17DE BAKKER JOOSNED6:48:508:11 7.3496
88.56LONGUEVILLE StéphaneBEL6:49:218:12 7.3397
89.941FERRARI DavideITA6:51:358:14 7.2998
90.10CASSART thibaultBEL6:52:448:16 7.2799
91.919CRANSKENS DidierBEL6:57:208:21 7.19101
92.1010TUYBENS KevinFRA7:03:078:28 7.09102
93.38FANGIO SchoonbaertBEL7:03:258:29 7.09104
94.928DELEPINE AntoineBEL7:07:228:33 7.02105
DNF: abandon; DSQ: disqualifié; Vitesse en km/h
08/02/2023 - 01:00 - 141 Entrées
ChronoRace - Electronic Timing SPRL
http://www.chronorace.be

Page 2 / 3  
Houffatrail
Catégorie
MAL
Houffalize, 07-08/12/2013, BEL
50km - Classement
50km 
RangNrNomAgeIOCEquipeTempsTkmMoy.ScrLocalité
95.956KLEISCH OlivierFRA7:07:398:34 7.02107
96.982PEYRONNET FrédéricFRA7:07:408:34 7.02108
97.953JANSSENS PaulNLD7:10:408:37 6.97110
98.62MOERMAN mutseBEL7:11:228:38 6.95111
99.123KIYA MasahikoJPN7:12:418:40 6.93112
100.988RAGETLIE JasperNLD7:12:428:40 6.93113
101.88VAN DEN BOSSCHE DavidBEL7:13:028:40 6.93114
102.1045HERMAN Romain32BEL7:13:388:41 6.92115ARLON
103.997SCIEUR BenoitBEL7:20:238:49 6.81116
104.996SCHOUTEN HansNLD7:22:598:52 6.77117
105.916CHAVEPEYER GuillaumeBEL7:23:378:53 6.76118
106.902BARKMAN RaymondNLD7:26:188:56 6.72119
107.113SCHAAPS PieterBEL7:26:198:56 6.72120
108.986QUIVY DidierFRA7:26:238:56 6.72121
109.989RENSONNET RaphaëlBEL7:28:338:59 6.69122
110.1029VANDEWIJER ErikBEL7:29:409:00 6.67123
111.992ROTTIERS WalterBEL7:32:419:04 6.63124
112.16DAAMS GeorgeNED7:32:529:04 6.62125
113.958KOK RuudNLD7:33:219:05 6.62126
114.946HERMANS StevenBEL7:37:049:09 6.56127
115.1020VAN DER HILST RobertNLD7:44:029:17 6.47129
116.960KUC PhilippeFRA7:45:269:19 6.45130
117.995SCHIAFFONATI PietroITA7:49:419:24 6.39131
118.94VAN GEERTERUY KoenBEL7:50:449:25 6.37132
119.937DIRKX JeffreyBEL8:00:079:37 6.25133
120.993ROUZIC JocelynFRA8:02:009:39 6.22134
121.949JACQUET PhilippeBEL8:03:209:40 6.21135
122.1046ILEGEMS Stefan35BEL8:03:559:41 6.20136BORNEM
123.1030VANDIJCK WesleyBEL8:06:559:45 6.16137
124.959KRAWCZYK GillesFRA8:09:229:48 6.13138
125.55LEVY PhilippeBEL8:18:419:59 6.02139
126.60MICHIELS AlexBEL8:19:039:59 6.01140
127.15COUVREUR HansBEL8:19:049:59 6.01141
128.990ROHRMANN BerndGER8:30:4610:13 5.87142
129.1039WALLYN SamuelFRA8:36:2010:20 5.81143
130.984POMEYROLS PatriceFRA8:36:2610:20 5.81144
131.11CLAEYS KristofBEL8:37:0810:21 5.80145
132.12CLAEYS Jean-MarieBEL8:37:1010:21 5.80147
133.931DENEFFE PhilippeBEL9:35:2011:31 5.21148
DSQ111ZEINSTRA JeroenNED3:33:24
DSQ936DHONDT DidierBEL3:53:00
DSQ34DUINKERKEN RonnieNED3:53:43
DSQ907BONA GuyBEL5:57:05
DSQ955KACIMI RobertoBEL5:57:09
DSQ920DAAMS ChristopheFRA7:27:09
DNF918CORNET PascalBEL
DNF1017VAN DE RIJZEN Jean-AntoinNLD
DNF: abandon; DSQ: disqualifié; Vitesse en km/h
08/02/2023 - 01:00 - 141 Entrées
ChronoRace - Electronic Timing SPRL
http://www.chronorace.be

Page 3 / 3